Погода в Дальневосточном

Россия / Амурская область     50°31′03″N   128°52′15″E
темп.,
°C
ветер,
м/с
пор.,
м/с
влажн.,
%
обл.,
%
осадки,
мм/ч
давл.,
гПа
погр.,
м
18 августа, чт
чт1800:00+21ююз7166130 0.0 1000595
03:00+18юз71485100 0.3 999437
06:00+16юз51298100 9.1 999545
09:00+16ююз3596100 13.3 999303
12:00+16сз3499100 5.4 999217
15:00+20сз35788 6.3 999645
18:00+21юз23745 0.0 999125
21:00+16ююз338992 0.0 100138
19 августа, пт
пт1900:00+15зюз2390100 0.0 100135
03:00+15зсз0178100 0.0 100010
06:00+14всв2380100 0.0 100039
09:00+17всв2379100 0.1 1000193
12:00+19ссв4572100 0.5 998508
15:00+19св3567100 0.8 997860
18:00+19ссз2372100 0.1 99687
21:00+14с237985 0.1 99724
20 августа, сб
сб2000:00+12зсз348197 0.0 99763
03:00+11зсз35845 0.0 99685
06:00+11сз34813 0.0 99765
09:00+17з46728 0.0 996411
12:00+17з667784 2.7 995536
15:00+19з676290 3.9 9941198
18:00+15сз6108298 2.6 994310
21:00+12св34946 2.8 99576
21 августа, вс
вс2100:00+11з359561 0.1 99592
03:00+10зсз3597100 0.1 99597
06:00+10з38965 0.0 995161
09:00+15зсз56848 0.0 995466
12:00+19зсз686532 0.0 9941251
15:00+20сз6955100 0.1 9941903
18:00+17с357599 0.3 995275
21:00+13зсз358494 0.6 99692
22 августа, пн
пн2200:00+11зсз499397 0.1 997242
03:00+12зсз51090100 0.1 998335
06:00+12зсз41084100 0.0 999379
09:00+15зсз687498 0.0 1000598
12:00+17сз576362 0.0 10001105
15:00+18сз696192 0.7 10001758
18:00+16сз4976100 0.8 1002308
21:00+14сз3674100 0.8 1003109